Regional Weather Roundup
Issued by NWS

Home | Current Version | Previous Version | Graphics & Text | Print | Product List | Glossary On
Versions: 1 2 3 4 5 6 7 8 9 10 11 12 13 14 15 16 17 18 19 20 21 22 23 24 25 26 27 28 29 30 31 32 33 34 35 36 37 38 39 40 41 42 43 44 45 46 47 48 49 50
000
ASUS43 KIND 171659
RWRIN

WEATHER ROUNDUP FOR INDIANA
NATIONAL WEATHER SERVICE INDIANAPOLIS IN
1200 PM EST WED DEC 17 2014

NOTE: "FAIR" INDICATES FEW OR NO CLOUDS BELOW 12,000 FEET WITH NO
SIGNIFICANT WEATHER AND/OR OBSTRUCTIONS TO VISIBILITY.

* - STATION DOES NOT REPORT WEATHER SUCH AS PRECIPITATION OR FOG.

+ - STATION NOT QUALITY CONTROLLED BY THE NATIONAL WEATHER SERVICE.
    USE DATA WITH CAUTION...ESPECIALLY DEWPOINT AND RELATIVE
    HUMIDITY OBSERVATIONS.

INZ001>003-010>013-019-020-171800-
NORTHWEST INDIANA

CITY           SKY/WX    TMP DP  RH WIND       PRES   REMARKS
GARY /AIRPORT/ CLOUDY    28  19  69 W12       30.26S WCI  18
VALPARAISO     NOT AVBL

$$

LMZ046-743>745-171800-
SOUTHERN LAKE MICHIGAN

STATION/POSITION TIME  TEMP WIND        PRES
                       AIR  DIR/SP/G
                 (UTC) (F)  (DEG/KT/KT) (MB)

$$

INZ004-005-014>016-021>024-171800-
NORTH CENTRAL INDIANA

CITY           SKY/WX    TMP DP  RH WIND       PRES   REMARKS
ELKHART        CLOUDY    28  21  74 W14G20    30.19F WCI  17
GOSHEN         CLOUDY    28  22  78 W15       30.19S WCI  16
SOUTH BEND     CLOUDY    28  22  78 W14       30.20S WCI  17

$$

INZ006>009-017-018-025>027-171800-
NORTHEAST INDIANA

CITY           SKY/WX    TMP DP  RH WIND       PRES   REMARKS
ANGOLA *+      CLOUDY    27  21  80 W13       30.14F WCI  16
FORT WAYNE     FLURRIES  28  23  81 W15G24    30.20S WCI  16

$$

INZ028-029-035-036-043>045-051>053-171800-
WEST CENTRAL INDIANA

CITY           SKY/WX    TMP DP  RH WIND       PRES   REMARKS
GREENCASTLE +  CLOUDY    27  21  80 W7        30.28F WCI  19
LAFAYETTE      CLOUDY    23  19  85 W9        30.27F WCI  13
TERRE HAUTE    CLOUDY    26  20  77 VRB7      30.31F WCI  18

$$

INZ030>032-037>040-046>048-054>057-064-065-171800-
CENTRAL INDIANA

CITY           SKY/WX    TMP DP  RH WIND       PRES   REMARKS
ANDERSON       CLOUDY    25  25 100 W17G23    30.25F WCI  11
COLUMBUS       CLOUDY    28  23  80 W12       30.28F WCI  18
INDIANAPOLIS   CLOUDY    25  20  81 W10       30.25F WCI  15
-EAGLE CREEK   CLOUDY    25  22  88 W9        30.25F WCI  15
KOKOMO *+      CLOUDY    27  21  80 W15G22    30.24F WCI  15
MT COMFORT *+  CLOUDY    27  25  93 W13       30.25F WCI  16
SHELBYVILLE    CLOUDY    29  22  75 W14       30.25F WCI  18

$$

INZ033-034-041-042-049-050-058-059-171800-
EAST CENTRAL INDIANA

CITY           SKY/WX    TMP DP  RH WIND       PRES   REMARKS
MUNCIE         CLOUDY    26  22  84 W14       30.22F WCI  14

$$

INZ060-061-067>069-081>083-085>088-171800-
SOUTHWEST INDIANA

CITY           SKY/WX    TMP DP  RH WIND       PRES   REMARKS
EVANSVILLE     CLOUDY    33  25  72 W9        30.33F WCI  25
HUNTINGBURG *+ CLOUDY    32  23  69 NW7       30.32F WCI  26

$$

INZ062-063-066-070>080-084-089>092-171800-
SOUTH CENTRAL AND SOUTHEAST INDIANA

CITY           SKY/WX    TMP DP  RH WIND       PRES   REMARKS
BLOOMINGTON    CLOUDY    26  22  84 W7        30.27F WCI  18

$$




USA.gov is the U.S. government's official web portal to all federal, state and local government web resources and services.